TimeEDT,TemperatureF,Dew PointF,Humidity,Sea Level PressureIn,VisibilityMPH,Wind Direction,Wind SpeedMPH,Gust SpeedMPH,PrecipitationIn,Events,Conditions,WindDirDegrees,DateUTC
12:34 AM,68.0,64.0,87,30.04,5.0,North,4.6,-,N/A,,Overcast,360,2013-10-13 04:34:00
12:57 AM,68.0,64.0,87,30.04,8.0,NNW,4.6,-,N/A,,Overcast,340,2013-10-13 04:57:00
1:32 AM,68.0,64.9,90,30.04,4.0,Calm,Calm,-,N/A,,Overcast,0,2013-10-13 05:32:00
1:53 AM,68.0,64.4,88,30.04,2.5,Calm,Calm,-,N/A,,Overcast,0,2013-10-13 05:53:00
1:57 AM,68.0,64.9,90,30.05,2.5,Calm,Calm,-,N/A,,Overcast,0,2013-10-13 05:57:00
2:05 AM,68.0,64.9,90,30.04,3.0,Calm,Calm,-,N/A,,Overcast,0,2013-10-13 06:05:00
2:57 AM,68.0,64.9,90,30.04,8.0,NNE,3.5,-,N/A,,Overcast,20,2013-10-13 06:57:00
3:20 AM,68.0,64.9,90,30.03,9.0,Calm,Calm,-,N/A,,Overcast,0,2013-10-13 07:20:00
3:57 AM,68.0,64.9,90,30.04,7.0,North,3.5,-,0.00,Rain,Light Rain,350,2013-10-13 07:57:00
4:41 AM,68.0,64.9,90,30.04,8.0,NNW,3.5,-,0.00,,Overcast,330,2013-10-13 08:41:00
4:57 AM,68.0,64.9,90,30.05,10.0,North,3.5,-,0.00,,Overcast,350,2013-10-13 08:57:00
5:07 AM,68.0,64.9,90,30.04,10.0,North,3.5,-,N/A,,Overcast,350,2013-10-13 09:07:00
5:18 AM,68.0,64.9,90,30.04,6.0,North,3.5,-,0.00,Rain,Light Rain,10,2013-10-13 09:18:00
5:25 AM,68.0,64.9,90,30.04,9.0,North,4.6,-,0.00,,Overcast,10,2013-10-13 09:25:00
5:48 AM,68.0,64.9,90,30.05,10.0,NNE,3.5,-,0.00,,Mostly Cloudy,20,2013-10-13 09:48:00
5:57 AM,68.0,64.9,90,30.07,8.0,NNE,4.6,-,0.00,,Mostly Cloudy,20,2013-10-13 09:57:00
6:13 AM,68.0,64.0,87,30.06,8.0,North,6.9,-,N/A,,Overcast,10,2013-10-13 10:13:00
6:32 AM,68.0,64.0,87,30.06,10.0,North,5.8,-,N/A,,Mostly Cloudy,10,2013-10-13 10:32:00
6:45 AM,66.9,64.0,90,30.07,10.0,NNE,3.5,-,N/A,,Mostly Cloudy,20,2013-10-13 10:45:00
6:57 AM,66.9,64.0,90,30.08,10.0,North,3.5,-,N/A,,Mostly Cloudy,10,2013-10-13 10:57:00
7:31 AM,66.9,63.0,87,30.07,8.0,North,4.6,-,N/A,,Scattered Clouds,360,2013-10-13 11:31:00
7:57 AM,66.9,64.0,90,30.09,8.0,North,6.9,-,N/A,,Partly Cloudy,360,2013-10-13 11:57:00
8:12 AM,66.9,64.0,90,30.08,8.0,North,6.9,-,N/A,,Mostly Cloudy,360,2013-10-13 12:12:00
8:48 AM,68.0,64.0,87,30.09,9.0,North,6.9,-,N/A,,Overcast,360,2013-10-13 12:48:00
8:55 AM,69.8,64.4,83,30.09,10.0,North,9.2,-,N/A,,Overcast,10,2013-10-13 12:55:00
8:57 AM,69.1,64.0,84,30.10,10.0,North,6.9,-,N/A,,Overcast,10,2013-10-13 12:57:00
9:57 AM,-9999,-9999,N/A,30.12,9.0,NNE,8.1,-,N/A,,Overcast,20,2013-10-13 13:57:00
10:57 AM,-9999,-9999,N/A,30.13,8.0,North,10.4,-,N/A,,Overcast,10,2013-10-13 14:57:00
11:57 AM,-9999,-9999,N/A,30.13,10.0,North,9.2,-,N/A,,Overcast,360,2013-10-13 15:57:00
12:04 PM,71.1,64.9,81,30.11,10.0,North,9.2,-,N/A,,Overcast,360,2013-10-13 16:04:00
12:57 PM,75.0,66.0,73,30.11,10.0,North,10.4,-,N/A,,Mostly Cloudy,360,2013-10-13 16:57:00
1:06 PM,75.0,64.9,71,30.09,10.0,North,9.2,-,N/A,,Mostly Cloudy,10,2013-10-13 17:06:00
1:57 PM,77.0,66.0,69,30.08,10.0,North,11.5,-,N/A,,Mostly Cloudy,350,2013-10-13 17:57:00
2:27 PM,79.0,66.9,66,30.07,10.0,NNW,6.9,-,N/A,,Overcast,330,2013-10-13 18:27:00
2:57 PM,78.1,66.9,68,30.07,10.0,North,8.1,-,N/A,,Overcast,360,2013-10-13 18:57:00
3:57 PM,80.1,66.0,62,30.06,10.0,North,11.5,-,N/A,,Partly Cloudy,10,2013-10-13 19:57:00
4:57 PM,79.0,66.0,64,30.06,10.0,NE,9.2,-,N/A,,Scattered Clouds,40,2013-10-13 20:57:00
5:57 PM,77.0,64.9,66,30.07,10.0,NNE,8.1,-,N/A,,Partly Cloudy,30,2013-10-13 21:57:00
6:57 PM,73.9,64.9,73,30.08,10.0,NNE,8.1,-,N/A,,Clear,20,2013-10-13 22:57:00
7:57 PM,72.0,66.0,81,30.10,10.0,North,4.6,-,N/A,,Partly Cloudy,350,2013-10-13 23:57:00
8:57 PM,70.0,66.0,87,30.11,10.0,North,4.6,-,N/A,,Mostly Cloudy,10,2013-10-14 00:57:00
9:14 PM,70.0,66.0,87,30.10,10.0,North,6.9,-,N/A,,Scattered Clouds,10,2013-10-14 01:14:00
9:57 PM,71.1,66.0,84,30.11,10.0,North,9.2,-,N/A,,Clear,10,2013-10-14 01:57:00
10:17 PM,71.1,66.9,87,30.11,10.0,North,9.2,-,N/A,,Mostly Cloudy,10,2013-10-14 02:17:00
10:57 PM,71.1,66.0,84,30.12,10.0,North,6.9,-,N/A,,Mostly Cloudy,10,2013-10-14 02:57:00
11:15 PM,71.1,66.0,84,30.10,10.0,NNE,9.2,-,N/A,,Scattered Clouds,20,2013-10-14 03:15:00
11:24 PM,71.1,66.0,84,30.10,10.0,NNE,8.1,-,N/A,,Mostly Cloudy,30,2013-10-14 03:24:00
11:34 PM,71.1,66.0,84,30.10,10.0,NNE,9.2,-,N/A,,Mostly Cloudy,20,2013-10-14 03:34:00
11:57 PM,71.1,66.0,84,30.11,9.0,NNE,9.2,-,N/A,,Overcast,30,2013-10-14 03:57:00